Change the Weather History Date:

Monday, May 5, 2014

  Actual Average Record
Temperature  
Mean Temperature 75 °F -  
Max Temperature 84 °F 86 °F 93 °F (1975)
Min Temperature 66 °F 68 °F 56 °F (1971)
Cooling Degree Days 10    
Growing Degree Days 25 (Base 50)    
Moisture  
Dew Point 63 °F    
Average Humidity 64    
Maximum Humidity 90    
Minimum Humidity 47    
Precipitation  
Precipitation 0.00 in - - ()
Sea Level Pressure  
Sea Level Pressure 30.03 in    
Wind  
Wind Speed 8 mph (NNE)    
Max Wind Speed 17 mph    
Max Gust Speed 18 mph    
Visibility 10 miles    
Events      
Averages and records for this station are not official NWS values.
T = Trace of Precipitation, MM = Missing Value Source: NWS Daily Summary

Daily Weather History Graph

Daily Weather History Graph

Search for Another Location

Airport or City:

Trip Planner

Search our weather history database for the weather conditions in past years. The results will help you decide how hot, cold, wet, or windy it might be!

Date:

Astronomy

May. 05, 2014 Rise Set
Actual Time 6:40 AM EDT 7:54 PM EDT
Civil Twilight 6:15 AM EDT 8:19 PM EDT
Nautical Twilight 5:46 AM EDT 8:48 PM EDT
Astronomical Twilight 5:16 AM EDT 9:18 PM EDT
Moon 11:56 AM EDT (5/5) 12:38 AM EDT (5/5)
Length of Visible Light 14h 03m
Length of Day
13h 14m
Waxing Crescent, 36% of the Moon is Illuminated
May 5
Waxing Crescent
May 6
First Quarter
May 14
Full
May 21
Last Quarter
May 28
New

Hourly Weather History & Observations

Time (EDT) Temp. Heat Index Dew Point Humidity Pressure Visibility Wind Dir Wind Speed Gust Speed Precip Events Conditions
12:53 AM 71.1 °F - 62.1 °F 73% 30.06 in 10.0 mi NNW 5.8 mph - N/A   Clear
2:53 AM 69.1 °F - 63.0 °F 81% 30.04 in 10.0 mi NW 4.6 mph - N/A   Clear
3:53 AM 69.1 °F - 63.0 °F 81% 30.04 in 10.0 mi NNW 5.8 mph - N/A   Clear
4:53 AM 68.0 °F - 64.0 °F 87% 30.04 in 10.0 mi NNW 4.6 mph - N/A   Clear
5:53 AM 68.0 °F - 64.0 °F 87% 30.04 in 10.0 mi NNW 5.8 mph - N/A   Clear
6:53 AM 66.9 °F - 64.0 °F 90% 30.05 in 8.0 mi NNW 5.8 mph - N/A   Clear
7:53 AM 72.0 °F - 64.9 °F 78% 30.06 in 10.0 mi North 6.9 mph - N/A   Clear
8:53 AM 77.0 °F - 66.0 °F 69% 30.06 in 10.0 mi North 6.9 mph - N/A   Clear
9:53 AM 82.0 °F 83.8 °F 64.9 °F 56% 30.06 in 10.0 mi NNE 11.5 mph - N/A   Clear
10:53 AM 82.0 °F 83.8 °F 64.9 °F 56% 30.06 in 10.0 mi NNE 13.8 mph - N/A   Clear
11:53 AM 82.0 °F 84.1 °F 66.0 °F 58% 30.06 in 10.0 mi NE 8.1 mph - N/A   Partly Cloudy
12:53 PM 82.9 °F 84.4 °F 64.0 °F 53% 30.05 in 10.0 mi NE 12.7 mph 18.4 mph N/A   Partly Cloudy
2:53 PM 84.0 °F 86.3 °F 66.0 °F 55% 30.02 in 10.0 mi ENE 17.3 mph - N/A   Clear
3:53 PM 82.9 °F 85.0 °F 66.0 °F 56% 30.01 in 10.0 mi ENE 15.0 mph - N/A   Clear
4:53 PM 82.9 °F 83.3 °F 61.0 °F 47% 30.00 in 10.0 mi ENE 10.4 mph - N/A   Clear
5:53 PM 82.0 °F 82.7 °F 61.0 °F 49% 30.00 in 10.0 mi ENE 11.5 mph - N/A   Clear
6:53 PM 81.0 °F 81.3 °F 59.0 °F 47% 29.99 in 10.0 mi ENE 10.4 mph - N/A   Clear
7:53 PM 78.1 °F - 57.9 °F 50% 30.00 in 10.0 mi East 6.9 mph - N/A   Clear
8:53 PM 77.0 °F - 59.0 °F 54% 30.01 in 10.0 mi ENE 5.8 mph - N/A   Clear
9:53 PM 77.0 °F - 60.1 °F 56% 30.03 in 10.0 mi East 5.8 mph - N/A   Clear
10:53 PM 75.9 °F - 62.1 °F 62% 30.04 in 10.0 mi ENE 5.8 mph - N/A   Clear